Regional Weather Roundup
Issued by NWS Portland, ME

Current Version | Previous Version | Graphics & Text | Print | Product List | Glossary On
Versions: 1 2 3 4 5 6 7 8 9 10 11 12 13 14 15 16 17 18 19 20 21 22 23 24 25 26 27 28 29 30 31 32 33 34 35 36 37 38 39 40 41 42 43 44 45 46 47 48 49 50
000
ASUS41 KGYX 211510
RWRGYX
WEATHER ROUNDUP FOR MAINE AND NEW HAMPSHIRE
NATIONAL WEATHER SERVICE GRAY ME
1000 AM EST SAT JAN 21 2017

MEZ002-005-006-010-012-015-018-020-021-024-026-027-029-211600-
MAINE

CITY           SKY/WX    TMP DP  RH WIND       PRES   REMARKS
PORTLAND       CLOUDY    37  32  82 CALM      29.83F
SANFORD        CLOUDY    39  34  82 CALM      29.82F
BAR HARBOR     CLOUDY    38  32  79 CALM      29.82F
WISCASSET      CLOUDY    38  32  79 CALM      29.84S
ROCKLAND       CLOUDY    36  35  96 CALM      29.82S FOG
FRYEBURG       PTSUNNY   36  28  73 CALM      29.81F
LEWISTONAUBURN CLOUDY    35  29  78 CALM      29.82S
AUGUSTA        CLOUDY    35  28  75 CALM      29.81S
WATERVILLE     CLOUDY    35  29  78 CALM      29.78F
BANGOR         PTSUNNY   35  28  75 SW7       29.81F
GREENVILLE       N/A     28  27  96 CALM      29.71F
MILLINOCKET    CLOUDY    32  25  75 VRB3      29.78F
HOULTON        CLOUDY    31  27  85 S7        29.74F
PRESQUE ISLE   CLOUDY    30  27  86 SW3       29.75S
FRENCHVILLE    CLOUDY    28  24  85 NW5       29.70F
CARIBOU        CLOUDY    29  25  85 SW5       29.72F
$$

NHZ002-005-008-009-011-012-014-211600-
NEW HAMPSHIRE

CITY           SKY/WX    TMP DP  RH WIND       PRES   REMARKS
PORTSMOUTH     CLOUDY    37  36  95 SW3       29.80F
ROCHESTER      CLOUDY    38  32  79 CALM      29.80F
NASHUA         CLOUDY    41  37  86 SW5       29.83S
MANCHESTER     CLOUDY    38  34  85 CALM      29.81F
CONCORD        CLOUDY    37  32  82 CALM      29.81F
LACONIA        CLOUDY    38  32  79 W6        29.80F
PLYMOUTH       CLOUDY    37  33  87 CALM      29.80F
BERLIN         CLOUDY    31  28  89 CALM      29.78R FOG
WHITEFIELD     CLOUDY    32  29  88 CALM      29.79S FOG
JAFFREY        CLOUDY    36  35  96 S5        29.81R FOG
KEENE          CLOUDY    39  37  92 W3        29.84R
LEBANON        CLOUDY    37  33  85 CALM      29.80F
MT WASHINGTON  FOG       30  30 100 W38         N/A  VSB 1/16WCI  14
$$

VTZ005-007-008-211600-
VERMONT

CITY           SKY/WX    TMP DP  RH WIND       PRES   REMARKS
ST JOHNSBURY     N/A     34  32  92 MISG      29.80R
MONTPELIER     FOG       32  32 100 CALM      29.81S VSB 1/4
BURLINGTON     DRIZZLE   39  37  92 VRB5      29.79F FOG
$$

MAZ007-012-024-CTZ003-RIZ002-NYZ038-NYZ072-211600-
SOUTHERN NEW ENGLAND AND NY

CITY           SKY/WX    TMP DP  RH WIND       PRES   REMARKS
BOSTON         CLOUDY    43  39  86 SW6       29.84S
WORCESTER      CLOUDY    37  35  92 W9        29.82R FOG
NANTUCKET      CLOUDY    44  42  93 SW8       29.87F FOG
PROVIDENCE     PTSUNNY   45  39  79 SW7       29.86S
HARTFORD       CLOUDY    41  39  93 S7        29.87R
ALBANY         CLOUDY    40  36  86 S8        29.86S
NEW YORK CITY  CLOUDY    48  42  80 SW8       29.89R
$$

ANZ081-ANZ082-ANZ150-NHZ014-MEZ023>029-211600-
COASTAL MARINE OBSERVATIONS

STATION/POSITION TIME  TEMP    WIND        PRES    WAVE
                       AIR SEA DIR/SP/G            HT/PER
                 (UTC) (F)     (DEG/KT/KT) (MB)    (FT/S)
MOUNT DESERT ROC 1500   40                 1009.7F
MATINICUS ROCK   1400   41     240/ 16/ 17 1009.2F
ISLE OF SHOALS   1400   38     240/ 12/ 13 1009.9F
CASHES LEDGE BUO 1450   42 46  200/ 17/ 19 1010.1R   6/11
GEORGES BANK BUO 1450   42 43              1013.2R   6/14
$$

.............KEY..............
   WCI - WIND CHILL
   TC  - TEMPERATURE IN CELSIUS
   VSB - VISIBILITY IN MILES
   HX  - HEAT INDEX
   FAIR- INDICATES FEW OR NO CLOUDS BELOW 12,000 FT, WITH NO
         SIGNIFICANT WEATHER AND/OR OBSTRUCTIONS TO VISIBILITY.






USA.gov is the U.S. government's official web portal to all federal, state and local government web resources and services.